Flag for Switzerland Weather past 2 weeks in Onex, Geneva, Switzerland

Now
59 °F

Passing clouds.


Feels Like: 59 °F
Forecast: 57 / 66 °F
Wind: 1 mph from North

Location: Geneva Cointrin Airport

Current Time: Jul 29, 2014 at 1:41:12 AM

Latest Report: Jul 29, 2014 at 1:20 AM


Visibility: N/A

Pressure: 29.89 "Hg

Humidity: 100%

Dew point: 59 °F

Location of OnexLocation

Historic Weather in Onex — Graph

°F

Onex temperature yesterday

Maximum temperature yesterday: 75 °F (at 11:20 AM)
Minimum temperature yesterday: 59 °F (at 5:50 AM)
Average temperature yesterday: 66 °F

Past Weeks' High & Low Weather Summary

 TemperatureHumidityPressure
High90 °F (Jul 18, 5:50 PM)100% (Jul 14, 12:20 AM)30.18 "Hg (Jul 14, 12:20 AM)
Low54 °F (Jul 27, 3:50 AM)24% (Jul 18, 6:20 PM)29.86 "Hg (Jul 19, 11:50 PM)
Average68 °F78%30.02 "Hg
* Reported Jul 14 12:20 AM — Jul 29 12:20 AM, Onex, Weather by CustomWeather, © 2014

Note: Actual official high and low records may vary slightly from our data, if they occured in-between our weather recording intervals... More about our weather records

Advertising

Onex weather history for previous 24 hours

 ConditionsComfort  
Time TempWeatherWind HumidityBarometerVisibility
12:20 AM
Jul 29
61 °FPassing clouds.2 mph94%29.89 "HgN/A
11:50 PM
Jul 28
59 °FPassing clouds.1 mph100%29.92 "HgN/A
10:50 PM61 °FPartly cloudy.1 mph100%29.92 "HgN/A
10:20 PM61 °FPartly cloudy.No wind100%29.92 "HgN/A
9:50 PM61 °FPartly sunny.2 mph100%29.92 "HgN/A
9:20 PM61 °FBroken clouds.2 mph94%29.92 "HgN/A
8:50 PM61 °FPartly sunny.2 mph94%29.92 "HgN/A
8:20 PM61 °FScattered showers. Partly sunny.3 mph94%29.92 "HgN/A
7:50 PM61 °FLight rain. Partly sunny.5 mph94%29.92 "HgN/A
7:20 PM61 °FLight rain. Partly sunny.9 mph94%29.92 "HgN/A
6:50 PM63 °FLight rain. More clouds than sun.10 mph88%29.92 "HgN/A
6:20 PM64 °FLight rain. More clouds than sun.15 mph78%29.92 "HgN/A
5:50 PM66 °FScattered showers. More clouds than sun.12 mph73%29.92 "HgN/A
5:20 PM66 °FScattered showers. Broken clouds.8 mph73%29.89 "HgN/A
4:50 PM68 °FSprinkles. Broken clouds.8 mph73%29.89 "HgN/A
4:20 PM68 °FSprinkles. Partly sunny.7 mph73%29.89 "HgN/A
3:50 PM68 °FPartly sunny.5 mph83%29.89 "HgN/A
3:20 PM68 °FPartly sunny.7 mph88%29.89 "HgN/A
2:50 PM68 °FSprinkles. Partly sunny.8 mph78%29.89 "HgN/A
2:20 PM73 °FLight rain. Partly sunny.7 mph65%29.89 "HgN/A
1:50 PM75 °FBroken clouds.13 mph61%29.89 "HgN/A
1:20 PM75 °FPartly sunny.10 mph61%29.89 "HgN/A
12:50 PM75 °FPartly sunny.7 mph61%29.89 "HgN/A
12:20 PM75 °FPartly sunny.5 mph61%29.89 "HgN/A
11:50 AM75 °FPartly sunny.6 mph61%29.92 "HgN/A
11:20 AM75 °FBroken clouds.5 mph61%29.92 "HgN/A
10:50 AM73 °FScattered clouds.3 mph65%29.92 "HgN/A
10:20 AM73 °FScattered clouds.2 mph65%29.95 "HgN/A
9:50 AM70 °FScattered clouds.2 mph73%29.95 "HgN/A
9:20 AM68 °FPassing clouds.1 mph78%29.95 "HgN/A
8:50 AM68 °FScattered clouds.2 mph83%29.95 "HgN/A
8:20 AM66 °FScattered clouds.2 mph83%29.95 "HgN/A
7:50 AM64 °FScattered clouds.1 mph88%29.95 "Hg6 mi
7:20 AM63 °FScattered clouds.2 mph94%29.95 "HgN/A
6:50 AM63 °FPassing clouds.2 mph94%29.95 "HgN/A
6:20 AM61 °FPassing clouds.1 mph100%29.95 "HgN/A
5:50 AM59 °FPassing clouds.No wind100%29.95 "HgN/A
5:20 AM61 °FPassing clouds.No wind94%29.95 "HgN/A
4:20 AM61 °FPassing clouds.No wind100%29.98 "HgN/A
3:50 AM61 °FClear.No wind100%29.98 "Hg10 mi
2:50 AM63 °FClear.No wind94%29.98 "Hg10 mi
2:20 AM64 °FClear.No wind88%30.01 "Hg10 mi
1:50 AM66 °FClear.1 mph83%30.01 "Hg10 mi
1:20 AM66 °FClear.2 mph83%30.01 "Hg10 mi
Weather by CustomWeather, © 2014

See weather overviewHow to use our weather pages